User: anonymous   Login
Location: Unspecified
(0.0000°N, 0.0000°E)
Time: 01:22:35
(UTC+00:00)
Language:

CARTOSAT 2C - Orbit

View from above orbital plane
View from above orbital plane
View from above satellite
View from above satellite

Ground track
Ground track

The orbit data is extracted from the following two-line orbital elements,

1 41599U 16040A   19197.81414694  .00000310  00000-0  18007-4 0  9997
2 41599  97.4971 255.8657 0012713 307.1170 187.9478 15.19229012169987
Epoch (UTC): 16 July 2019 19:32:22
Eccentricity: 0.0012713
inclination: 97.4971°
perigee height: 499 km
apogee height: 517 km
right ascension of ascending node: 255.8657°
argument of perigee: 307.1170°
revolutions per day: 15.19229012
mean anomaly at epoch: 187.9478°
orbit number at epoch: 16998

The dashed part of the orbit path shows where the satellite is in the earth's shadow,  

DLR